Volver al catálogo

DELTA 1 DEB

ActivoSSO
NORAD 21276·DEBRIS·🇺🇸 United States

Lanzado Jun 12, 1975 desde Vandenberg Space Force Base

Loading…

Próximos Pases (próximas 24 horas)

TLE

ActualizadoSource: Space-Track

Época: Sep 14, 2026, 03:22 UTC

1 21276U 75052M   26257.14035714  .00000004  00000-0  93354-4 0  9996
2 21276  99.9937 154.4979 0045319 254.9749 269.1724 13.35586181723607

Sigue DELTA 1 DEB en tiempo real con AllMySat

Download on the App Store